Find Starlink 11253

NORAD ID: 60935 Int'l Des: 2024-155 Owner: SPXS Country: US Constellation: starlink operational
LEOCIRCULAR

リアルタイム位置

3D地球を読み込み中...

Starlink 11253について

説明を読み込み中...

次回通過

Passes for default location (London). Set your location on the main map for personalized predictions.

高度履歴

Loading altitude history...

軌道要素

1 60935U 24155M 26128.19111299 .00002775 00000-0 27759-4 0 9997
2 60935 53.1585 48.2289 0000730 141.3685 218.7386 15.69701224 97742
Epoch: May 8, 2026 • Age: 4 hours

現在のステータス

高度 366.7 km
速度 7.69 km/s
衛星直下点 -22.72°S, 27.19°E
打ち上げ日 Aug 31, 2024
運用期間 1.6 years
タイプ internet

技術仕様

分類 Payload
質量 960.00 kg
乾燥質量 910.00 kg
総質量 960.00 kg
長さ 0.30 m
直径 4.10 m
スパン 29.00 m
形状 Box + pan
製造者 SPXS
バスタイプ Starlink V2MD
フェーズステータス In Orbit
所有者/国 SPXS/US

Most Searched